Flag for Afghanistan Weather past 2 weeks in Jalalabad, Afghanistan

Now
73 °F

Mild.


Feels Like: 76 °F
Forecast: 57 / 80 °F
Wind: N/A

Location: Peshawar Airport

Current Time: Oct 23, 2014 at 9:49:13 AM

Latest Report: Oct 23, 2014 at 9:30 AM


Visibility: N/A

Pressure: 30.04 "Hg

Humidity: 69%

Dew point: 63 °F

Location of JalalabadLocation

Historic Weather in Jalalabad — Graph

°F

Jalalabad temperature yesterday

Maximum temperature yesterday: 84 °F (at 12:30 PM)
Minimum temperature yesterday: 63 °F (at 3:30 AM)
Average temperature yesterday: 74 °F

Past Weeks' High & Low Weather Summary

 TemperatureHumidityPressure
High91 °F (Oct 9, 8:30 PM)100% (Oct 12, 1:30 PM)30.12 "Hg (Oct 12, 1:30 PM)
Low37 °F (Oct 12, 1:30 PM)32% (Oct 9, 8:30 PM)29.77 "Hg (Oct 11, 3:30 PM)
Average72 °F64%29.98 "Hg
* Reported Oct 8 8:30 AM — Oct 23 8:30 AM, Jalalabad, Weather by CustomWeather, © 2014

Note: Actual official high and low records may vary slightly from our data, if they occured in-between our weather recording intervals... More about our weather records

Advertising

Jalalabad weather history for previous 24 hours

 ConditionsComfort  
Time TempWeatherWind HumidityBarometerVisibility
8:30 AM
Oct 23
72 °FScattered clouds.No wind69%30.04 "Hg1 mi
7:30 AM68 °FScattered clouds.No wind78%30.01 "Hg1 mi
6:30 AM66 °FFog.No wind83%30.01 "Hg1 mi
5:30 AM66 °FFog.No wind88%29.98 "Hg2 mi
4:30 AM66 °FFog.No wind68%29.98 "Hg2 mi
3:30 AM66 °FHaze.No wind73%29.98 "Hg2 mi
2:30 AM68 °FHaze.No wind73%29.98 "Hg2 mi
1:30 AM66 °FClear.No wind73%29.98 "Hg2 mi
12:30 AM68 °FClear.No wind69%29.98 "Hg2 mi
11:30 PM
Oct 22
70 °FClear.No wind64%30.01 "Hg2 mi
10:30 PM72 °FClear.No wind61%30.01 "Hg2 mi
9:30 PM72 °FClear.No wind61%30.01 "Hg2 mi
8:30 PM73 °FHaze.No wind61%30.01 "Hg2 mi
7:30 PM73 °FPassing clouds.No wind61%30.01 "Hg2 mi
6:30 PM77 °FWarm.N/A57%29.98 "HgN/A
5:30 PM79 °FPassing clouds.No wind51%29.98 "Hg2 mi
4:30 PM82 °FWarm.N/A48%29.98 "HgN/A
3:30 PM84 °FWarm.N/A43%29.98 "HgN/A
2:30 PM84 °FWarm.N/A45%30.01 "HgN/A
1:30 PM84 °FWarm.N/A45%30.01 "HgN/A
12:30 PM84 °FWarm.N/A48%30.04 "HgN/A
11:30 AM82 °FWarm.N/A51%30.09 "HgN/A
10:30 AM81 °FSunny.No wind54%30.09 "Hg2 mi
9:30 AM77 °FSunny.No wind57%30.12 "Hg2 mi
Weather by CustomWeather, © 2014

See weather overviewHow to use our weather pages